TimeCDT,TemperatureF,Dew PointF,Humidity,Sea Level PressureIn,VisibilityMPH,Wind Direction,Wind SpeedMPH,Gust SpeedMPH,PrecipitationIn,Events,Conditions,WindDirDegrees,DateUTC
12:15 AM,50.0,44.6,82,29.65,10.0,NW,21.9,34.5,N/A,,Mostly Cloudy,310,2014-03-12 05:15:00
12:35 AM,48.2,42.8,82,29.68,10.0,WNW,15.0,24.2,N/A,,Overcast,300,2014-03-12 05:35:00
12:55 AM,46.4,41.0,81,29.70,9.0,NW,24.2,35.7,N/A,,Overcast,320,2014-03-12 05:55:00
1:15 AM,46.4,39.2,76,29.73,10.0,NW,20.7,33.4,N/A,,Overcast,310,2014-03-12 06:15:00
1:35 AM,44.6,39.2,81,29.75,9.0,NW,18.4,35.7,N/A,Rain,Light Rain,310,2014-03-12 06:35:00
1:55 AM,42.8,37.4,81,29.77,10.0,NW,25.3,36.8,N/A,,Mostly Cloudy,320,2014-03-12 06:55:00
2:15 AM,42.8,37.4,81,29.79,10.0,NW,19.6,35.7,N/A,,Overcast,320,2014-03-12 07:15:00
2:35 AM,41.0,37.4,87,29.80,10.0,NW,29.9,36.8,N/A,Rain,Light Rain,320,2014-03-12 07:35:00
2:55 AM,39.2,35.6,87,29.82,10.0,NW,21.9,33.4,N/A,Rain,Light Rain,320,2014-03-12 07:55:00
3:15 AM,37.4,33.8,87,29.85,5.0,NNW,29.9,38.0,N/A,Rain,Light Rain,330,2014-03-12 08:15:00
3:35 AM,37.4,33.8,87,29.86,9.0,NW,24.2,29.9,N/A,Rain,Light Rain,320,2014-03-12 08:35:00
3:55 AM,35.6,33.8,93,29.88,9.0,NNW,20.7,29.9,N/A,Rain,Light Rain,330,2014-03-12 08:55:00
4:15 AM,37.4,32.0,81,29.89,10.0,NNW,20.7,29.9,N/A,,Mostly Cloudy,330,2014-03-12 09:15:00
4:35 AM,37.4,32.0,81,29.89,10.0,NNW,25.3,32.2,N/A,,Overcast,330,2014-03-12 09:35:00
4:55 AM,37.4,32.0,81,29.91,10.0,NNW,23.0,32.2,N/A,,Overcast,330,2014-03-12 09:55:00
5:15 AM,37.4,32.0,81,29.92,10.0,NNW,18.4,34.5,N/A,,Overcast,340,2014-03-12 10:15:00
5:35 AM,37.4,32.0,81,29.93,10.0,NNW,25.3,33.4,N/A,,Overcast,330,2014-03-12 10:35:00
5:55 AM,37.4,30.2,75,29.95,10.0,NNW,24.2,32.2,N/A,,Overcast,330,2014-03-12 10:55:00
6:15 AM,37.4,28.4,70,29.96,10.0,NNW,25.3,33.4,N/A,,Overcast,330,2014-03-12 11:15:00
6:35 AM,37.4,28.4,70,29.98,10.0,NNW,17.3,24.2,N/A,,Overcast,330,2014-03-12 11:35:00
6:51 AM,35.6,28.4,75,29.99,10.0,NNW,20.7,31.1,N/A,,Overcast,330,2014-03-12 11:51:00
7:55 AM,35.6,26.6,70,30.03,10.0,NW,24.2,32.2,N/A,,Mostly Cloudy,320,2014-03-12 12:55:00
8:46 AM,35.6,26.6,70,30.06,10.0,NW,19.6,31.1,N/A,,Mostly Cloudy,320,2014-03-12 13:46:00
9:48 AM,39.2,24.8,56,30.10,10.0,NNW,23.0,31.1,N/A,,Mostly Cloudy,330,2014-03-12 14:48:00
10:46 AM,39.2,23.0,52,30.13,10.0,NW,25.3,39.1,N/A,,Partly Cloudy,310,2014-03-12 15:46:00
11:46 AM,42.8,19.4,39,30.14,10.0,NNW,19.6,26.5,N/A,,Partly Cloudy,330,2014-03-12 16:46:00
12:46 PM,46.4,17.6,32,30.15,10.0,North,20.7,32.2,N/A,,Partly Cloudy,350,2014-03-12 17:46:00
1:45 PM,48.2,17.6,30,30.14,10.0,NW,15.0,33.4,N/A,,Clear,320,2014-03-12 18:45:00
2:45 PM,48.2,15.8,27,30.13,10.0,NW,19.6,34.5,N/A,,Partly Cloudy,320,2014-03-12 19:45:00
3:50 PM,50.0,17.6,28,30.13,10.0,NNW,23.0,34.5,N/A,,Partly Cloudy,330,2014-03-12 20:50:00
4:45 PM,50.0,17.6,28,30.13,10.0,NNW,16.1,32.2,N/A,,Partly Cloudy,330,2014-03-12 21:45:00
5:45 PM,50.0,17.6,28,30.13,10.0,NW,12.7,27.6,N/A,,Partly Cloudy,320,2014-03-12 22:45:00
6:50 PM,48.2,17.6,30,30.14,10.0,NW,12.7,17.3,N/A,,Partly Cloudy,310,2014-03-12 23:50:00
7:50 PM,46.4,17.6,32,30.15,10.0,NW,6.9,-,N/A,,Clear,310,2014-03-13 00:50:00
8:45 PM,42.8,19.4,39,30.17,10.0,West,5.8,-,N/A,,Clear,260,2014-03-13 01:45:00
9:15 PM,41.0,19.4,42,30.17,10.0,Calm,Calm,-,N/A,,Partly Cloudy,0,2014-03-13 02:15:00
9:35 PM,41.0,19.4,42,30.17,10.0,Calm,Calm,-,N/A,,Partly Cloudy,0,2014-03-13 02:35:00
9:55 PM,41.0,21.2,45,30.17,10.0,WSW,3.5,-,N/A,,Clear,240,2014-03-13 02:55:00
10:15 PM,41.0,19.4,42,30.17,10.0,WSW,3.5,-,N/A,,Clear,240,2014-03-13 03:15:00
10:35 PM,41.0,21.2,45,30.17,10.0,SW,3.5,-,N/A,,Clear,230,2014-03-13 03:35:00
10:55 PM,39.2,21.2,49,30.17,10.0,SW,3.5,-,N/A,,Clear,220,2014-03-13 03:55:00
11:15 PM,39.2,21.2,49,30.17,10.0,WSW,3.5,-,N/A,,Clear,240,2014-03-13 04:15:00
11:35 PM,39.2,21.2,49,30.17,10.0,SW,3.5,-,N/A,,Clear,230,2014-03-13 04:35:00
11:55 PM,39.2,23.0,52,30.17,10.0,SW,3.5,-,N/A,,Clear,230,2014-03-13 04:55:00